C/2020 N1 ( PanSTARRS )

Japanese version
Home page
Updated on July 22, 2020

---------------------------------------------------------------------

* Profile

Discovery Date July 3, 2020
Magnitude 20.7 mag
Discoverer Pan-STARRS 1 telescope (Haleakala)

* Orbital Elements

Epoch 2021 Mar. 7.0 TT = JDT 2459280.5                                          
T 2021 Mar. 12.07110 TT                                 Rudenko                 
q   1.3178040            (2000.0)            P               Q                  
z  -0.0003741      Peri.  186.88744     -0.27401893     -0.82869849             
 +/-0.0003205      Node   279.94278     +0.90431374     -0.04931819             
e   1.0004929      Incl.   29.70080     +0.32730762     -0.55751819             
From 49 observations 2020 July 1-18, mean residual 0".4.                        

* Finding Charts

* Magnitudes Graph

        m1 = 12.0 + 5 log d + 10.0 log r

---------------------------------------------------------------------

The orbital elements are published on M.P.E.C. 2020-O31.
The charts are made with StellaNavigator Ver.10 (AstroArts).
The magnitudes graphs are made with Comet for Windows.

---------------------------------------------------------------------

Copyright(C) Seiichi Yoshida (comet@aerith.net). All rights reserved.